Location: Be?chatów
(51.3665°N, 19.3745°E)
Time: 08:40:44
(UTC+00:00)

Cosmos 1328 Rocket - Pass Details

Date: 19 May 2025
Orbit: 596 x 618 km, 82.5° (Epoch: 16 June)

Event Time Altitude Azimuth Distance (km) Brightness Sun altitude
Exits shadow 23:23:13 39° 203° (SSW) 911 3.9 -18.0°
Maximum altitude 23:24:46 76° 281° (W) 626 3.5 -17.9°
Drops below altitude 10° 23:29:07 10° 8° (N) 1,964 7.4 -17.8°
Sets 23:31:21 0° 10° (N) 2,876 8.7 -17.7°
